Regional Weather Roundup
Issued by NWS

Home | Current Version | Previous Version | Text Only | Print | Product List | Glossary On
Versions: 1 2 3 4 5 6 7 8 9 10 11 12 13 14 15 16 17 18 19 20 21 22 23 24 25 26 27 28 29 30 31 32 33 34 35 36 37 38 39 40 41 42 43 44 45 46 47 48 49 50
000
ASUS43 KMKX 030721
RWRWI

WISCONSIN REGIONAL WEATHER ROUNDUP
NATIONAL WEATHER SERVICE MILWAUKEE/SULLIVAN WI
100 AM CST FRI DEC 03 2021

NOTE: "FAIR" INDICATES FEW OR NO CLOUDS BELOW 12,000 FEET WITH NO
SIGNIFICANT WEATHER AND/OR OBSTRUCTIONS TO VISIBILITY.

WIZ001-002-006>008-014>016-023>028-030800-
NORTHWEST WISCONSIN

CITY           SKY/WX    TMP DP  RH WIND       PRES   REMARKS
SUPERIOR ARPT  MIX PCPN  30  27  88 CALM      30.03F
ASHLAND        CLOUDY    30  26  85 CALM      30.05S
HAYWARD        LGT SNOW  30  26  85 CALM      30.02F FOG
SIREN          LGT SNOW  31  30  96 CALM      30.03F
CUMBERLAND     LGT SNOW  32  32 100 CALM      30.03S
RICE LAKE      LGT SNOW  34  32  92 CALM      30.06R
CHETEK         LGT SNOW  33  31  92 CALM      30.05R
LADYSMITH      LGT SNOW  32  32 100 CALM      30.05S
EAU CLAIRE     LGT SNOW  33  31  92 CALM      30.04S VSB 3/4
MENOMONIE      LGT SNOW  34  34  99 CALM      30.04F VSB 1
NEW RICHMOND   LGT SNOW  32  31  94 CALM      30.04S
OSCEOLA        LGT SNOW  36  36 100 CALM      30.06S
$$

WIZ003>005-009-010-017-018-030800-
NORTH CENTRAL WISCONSIN

CITY           SKY/WX    TMP DP  RH WIND       PRES   REMARKS
MANITOWISH WTR CLOUDY    28  28  99 CALM      30.00S
ARBOR VITAE    CLOUDY    32   2  28 CALM      30.00S
WOODRUFF       CLOUDY    32   2  28 CALM      30.00S
RHINELANDER    CLOUDY    29  25  85 CALM      30.02R
EAGLE RIVER    CLOUDY    28  25  87 CALM      30.00S
LAND O LAKES   CLOUDY    28  26  89 CALM      30.02R
PHILLIPS       LGT SNOW  29  27  92 SW3       30.02S
TOMAHAWK       CLOUDY    30  26  84 CALM      30.04R
MEDFORD        CLOUDY    31  29  92 CALM      30.04R
MERRILL        MIX PCPN  29  26  88 CALM      30.03R
$$

WIZ029-030-035-036-043>047-030800-
CENTRAL WISCONSIN

CITY           SKY/WX    TMP DP  RH WIND       PRES   REMARKS
WAUSAU         CLOUDY    33  25  72 CALM      30.02R
MOSINEE        LGT SNOW  32  27  80 SW6       30.05R WCI  26
MARSHFIELD     LGT SNOW  31  29  92 CALM      30.03S VSB 1
STEVENS POINT  MIX PCPN  32  29  90 CALM      30.05R VSB 1
WAUPACA        LGT SNOW  36  29  75 CALM      30.06R
WAUTOMA        CLOUDY    33  29  85 MISG        N/A
WISC RAPIDS    LGT SNOW  33  29  85 CALM      30.06R VSB 1
CAMP DOUGLAS   FLURRIES  36  28  75 CALM      30.04S
$$

WIZ011>013-019>022-031-037>040-048>050-030800-
NORTHEAST WISCONSIN

CITY           SKY/WX    TMP DP  RH WIND       PRES   REMARKS
ANTIGO         CLOUDY    30  28  92 CALM      30.03R
SHAWANO        CLOUDY    33  30  90 CALM      30.04S
OCONTO         CLOUDY    30  28  94 CALM      30.05S
STURGEON BAY   CLOUDY    34  27  75 E3        30.04F
GREEN BAY      CLOUDY    34  28  79 NE6       30.05S WCI  29
MANITOWOC      CLOUDY    35  28  75 N3        30.05F
APPLETON       CLOUDY    34  27  75 CALM      30.02S
CLINTONVILLE   CLOUDY    32  28  86 CALM      30.06R
OSHKOSH        CLOUDY    35  29  78 CALM      30.04R
$$

WIZ032>034-041-042-053>061-030800-
SOUTHWEST WISCONSIN

CITY           SKY/WX    TMP DP  RH WIND       PRES   REMARKS
LA CROSSE      LGT RAIN  40  33  76 SE7       30.03F
SPARTA         MIX PCPN  35  32  89 CALM      30.06S
VIROQUA        CLOUDY    33  33 100 CALM      30.02S
BOSCOBEL       LGT RAIN  40  32  73 CALM      30.05S
PRAIRIE DU CHI DRIZZLE   39  35  84 CALM      30.03F
PLATTEVILLE    CLOUDY    40  33  75 E3        30.04S
$$

WIZ056-057-062-063-064-067-068-030800-
SOUTH CENTRAL WISCONSIN

CITY           SKY/WX    TMP DP  RH WIND       PRES   REMARKS
REEDSBURG      CLOUDY    36  32  86 S5        30.04S WCI  32
BARABOO/DELLS  LGT RAIN  35  29  79 S5        30.04S WCI  31
LONE ROCK      LGT RAIN  38  34  85 N3        30.05S
MINERAL POINT  NOT AVBL
MADISON        LGT RAIN  36  33  89 CALM      30.04S
MIDDLETON      CLOUDY    37  35  90 CALM      30.04F
WATERTOWN      CLOUDY    36  28  71 CALM      30.04R
MONROE         CLOUDY    41  26  55 E3        30.03S
JANESVILLE     CLOUDY    43  27  52 NE7       30.03R
$$

WIZ051-052-058>065-066-070>072-030800-
SOUTHEAST WISCONSIN

CITY           SKY/WX    TMP DP  RH WIND       PRES   REMARKS
MILWAUKEE      CLOUDY    43  29  57 CALM      30.04F
WAUKESHA       CLOUDY    36  27  69 CALM      30.05R
MILWAUKEE/TIMM CLOUDY    36  27  69 CALM      30.05R
RACINE         CLOUDY    41  31  67 CALM      30.04F
KENOSHA        CLOUDY    42  28  57 CALM      30.03F
FOND DU LAC    CLOUDY    39  28  64 N3        30.03S
SHEBOYGAN      CLOUDY    36  29  75 N3        30.03F
WEST BEND      CLOUDY    34  30  86 CALM      30.05R
JUNEAU         CLOUDY    35  28  76 CALM      30.05R
$$

LSZ147-162-030800-
LAKE SUPERIOR

STATION/POSITION TIME  TEMP    WIND        PRES    WAVE
                       AIR SEA DIR/SP/G            HT/PER
                 (UTC) (F)     (DEG/KT/KT) (MB)    (FT/S)
DEVILS ISLAND    0700   32      90/  7/  9 1018.2F
PORT WING        0640   33      CALM  /  1 1017.3S
SAXON HARBOR     0630   32        CALM     1016.9R
$$

LMZ867-665-643>646-030800-
LAKE MICHIGAN

STATION/POSITION TIME  TEMP    WIND        PRES    WAVE
                       AIR SEA DIR/SP/G            HT/PER
                 (UTC) (F)     (DEG/KT/KT) (MB)    (FT/S)
NORTHPORT PIER   0640   35     270/  7/ 10 1017.9S
KEWAUNEE LAKESHO 0642   35     340/  1/  3 1016.0R
SHEBOYGAN LAKESH 0700   37     340/  4/  5 1017.8F
PORT WASHINGTON  0630   39     320/  3/  5 1017.9F
MILWAUKEE LAKESH 0700   43      50/  4/  4   N/A
S MID LAKE BUOY  0700   44 46   CALM  /  2 1016.9
KENOSHA   LAKESH 0700   43      30/  6/  8 1017.3
$$

TC  - TEMPERATURE IN CELSIUS
VSB - VISIBILITY IN STATUTE MILES
WCI - WIND CHILL INDEX
HX  - HEAT INDEX




USA.gov is the U.S. government's official web portal to all federal, state and local government web resources and services.